This is the latest recevied weather packets stored in our database for station/object CT4TX-11. If no packets are shown the sender has not sent any weather packets the latest 10 day(s).
| Time | Temp. | Humidity | Pressure | Rain* | Wind** | Luminosity | Snow |
|---|---|---|---|---|---|---|---|
| 1788513682 | 33.33° C | 39% | 1008.5 hPa | - | - | - | - |
| 1788512782 | 33.33° C | 38% | 1008.4 hPa | - | - | - | - |
| 1788511882 | 32.78° C | 38% | 1008.5 hPa | - | - | - | - |
| 1788510981 | 31.67° C | 40% | 1008.3 hPa | - | - | - | - |
| 1788510081 | 31.11° C | 40% | 1007.9 hPa | - | - | - | - |
| 1788509180 | 30.56° C | 40% | 1007.5 hPa | - | - | - | - |
| 1788508280 | 30.56° C | 41% | 1007.3 hPa | - | - | - | - |
| 1788507380 | 31.11° C | 43% | 1007.1 hPa | - | - | - | - |
| 1788506480 | 31.67° C | 40% | 1007.1 hPa | - | - | - | - |
| 1788505579 | 32.22° C | 41% | 1007 hPa | - | - | - | - |
| 1788504679 | 32.22° C | 41% | 1006.9 hPa | - | - | - | - |
| 1788503778 | 31.67° C | 41% | 1006.6 hPa | - | - | - | - |
| 1788502878 | 32.22° C | 41% | 1006.3 hPa | - | - | - | - |
| 1788501977 | 32.22° C | 41% | 1006.2 hPa | - | - | - | - |
| 1788501077 | 32.22° C | 41% | 1006.1 hPa | - | - | - | - |
| 1788500177 | 32.22° C | 41% | 1006 hPa | - | - | - | - |
| 1788499277 | 32.22° C | 41% | 1006.1 hPa | - | - | - | - |
| 1788498377 | 32.22° C | 41% | 1006.6 hPa | - | - | - | - |
| 1788497476 | 32.22° C | 41% | 1006.7 hPa | - | - | - | - |
| 1788496576 | 32.22° C | 41% | 1006.5 hPa | - | - | - | - |
| 1788495676 | 32.22° C | 41% | 1006.2 hPa | - | - | - | - |
| 1788494775 | 32.22° C | 41% | 1006 hPa | - | - | - | - |
| 1788493882 | 32.22° C | 41% | 1005.9 hPa | - | - | - | - |
| 1788492982 | 32.22° C | 41% | 1005.6 hPa | - | - | - | - |
| 1788492082 | 32.22° C | 41% | 1005.5 hPa | - | - | - | - |
* Rain since midnight (hover to see other rain measurements)
** Current wind speed in m/s (hover to see current wind gust speed)